Volver al catálogo

JILIN-01 KUANFU 01

ActivoCienciaSSO
NORAD 45016·PAYLOAD·🇨🇳 China

Lanzado Jan 15, 2020 desde Taiyuan Satellite Launch Center

Loading…

Próximos Pases (próximas 24 horas)

TLE

ActualizadoSource: Space-Track

Época: Sep 14, 2026, 14:58 UTC

1 45016U 20003A   26257.62397564  .00002242  00000-0  13741-3 0  9994
2 45016  97.4956 329.8226 0009597   4.7678 355.3641 15.11145614368836

Sigue JILIN-01 KUANFU 01 en tiempo real con AllMySat

Download on the App Store